15min,AgWx,evansfrm,411,17NOV2017:00:00:00,44.1,12.82,41.8,41.7,42.0,42.3,41.7,100,100,100,0.896,42.0,42.3,41.7,5.305,6.0,1.7,15,13.2,0.00000,0.00000,45.0,43.9,12,0,100,44.2,12.85,0.06,0.06
15min,AgWx,evansfrm,411,17NOV2017:00:15:00,43.6,12.82,41.0,41.2,41.5,41.7,41.1,100,100,100,0.878,41.5,41.7,41.1,2.324,4.4,3.6,17,7.2,0.00000,0.00000,44.9,43.9,12,0,100,43.9,12.90,0.05,0.05
15min,AgWx,evansfrm,411,17NOV2017:00:30:00,43.2,12.82,40.6,40.7,40.9,41.2,40.7,100,100,100,0.862,40.9,41.3,40.7,3.244,3.3,8.8,20,6.5,0.00000,0.00000,44.9,43.9,12,0,100,43.7,12.95,0.05,0.06
15min,AgWx,evansfrm,411,17NOV2017:00:45:00,42.7,12.81,40.6,40.5,40.7,40.8,40.3,100,100,100,0.856,40.7,40.8,40.3,9.08,5.3,47,18,10.6,0.00000,0.00000,44.8,43.9,12,0,100,43.2,13.00,0.05,0.04
15min,AgWx,evansfrm,411,17NOV2017:01:00:00,42.3,12.82,40.3,40.5,40.6,40.7,40.3,100,100,100,0.854,40.6,40.7,40.4,4.911,3.5,52,39,7.8,0.00000,0.00000,44.7,43.9,12,0,100,43.1,13.02,0.02,0.03
15min,AgWx,evansfrm,411,17NOV2017:01:15:00,42.0,12.81,40.1,40.2,40.3,40.5,40.0,100,100,100,0.846,40.3,40.5,40.0,2.653,3.8,305,13,7.0,0.00000,0.00000,44.8,44.1,12,0,100,42.8,13.04,0.02,0.02
15min,AgWx,evansfrm,411,17NOV2017:01:30:00,41.8,12.81,40.1,39.9,40.1,40.4,39.9,100,100,100,0.836,40.1,40.4,39.9,0.241,3.5,292,18,7.9,0.00000,0.00000,44.6,44.1,13,0,100,43.1,13.06,0.01,0.01
15min,AgWx,evansfrm,411,17NOV2017:01:45:00,41.6,12.81,40.1,40.0,39.9,40.0,39.8,100,100,100,0.838,39.9,40.1,39.8,1.315,1.1,343,13,2.3,0.00000,0.00000,44.5,43.9,13,0,100,43.7,13.07,0.01,0.01
15min,AgWx,evansfrm,411,17NOV2017:02:00:00,41.5,12.8,40.1,40.0,40.0,40.0,39.9,100,100,100,0.838,40.0,40.1,39.9,1.469,0.5,323,12,2.2,0.00000,0.00000,44.6,43.9,14,0,100,43.9,13.10,0.03,0.03
15min,AgWx,evansfrm,411,17NOV2017:02:15:00,41.4,12.81,39.9,40.0,39.9,40.0,39.8,100,100,100,0.840,39.9,40.1,39.8,2.872,3.9,354,23,9.4,0.00000,0.00000,44.4,44.1,16,0,100,43.1,13.13,0.03,0.04
15min,AgWx,evansfrm,411,17NOV2017:02:30:00,41.1,12.81,39.3,39.2,39.6,40.0,39.2,100,100,99,0.805,39.6,40.0,39.0,6.642,5.9,17,13,10.4,0.00000,0.00000,44.4,43.9,18,0,100,41.9,13.16,0.03,0.03
15min,AgWx,evansfrm,411,17NOV2017:02:45:00,40.7,12.79,39.1,39.1,39.2,39.4,39.1,100,100,98,0.809,39.1,39.3,38.9,8.7,6.5,9.1,16,11.8,0.00000,0.00000,44.3,43.9,21,0,100,41.3,13.18,0.02,0.02
15min,AgWx,evansfrm,411,17NOV2017:03:00:00,40.4,12.79,38.8,38.7,38.9,39.1,38.7,100,100,100,0.797,38.9,39.1,38.7,3.442,5.5,341,20,9.1,0.00000,0.00000,44.3,43.9,24,0,100,41.1,13.21,0.03,0.03
15min,AgWx,evansfrm,411,17NOV2017:03:15:00,40.1,12.8,38.0,38.0,38.3,38.8,38.0,100,100,100,0.775,38.3,38.8,38.0,5.502,5.6,11,27,10.2,0.00000,0.00000,44.2,43.9,27,0,100,40.7,13.25,0.04,0.04
15min,AgWx,evansfrm,411,17NOV2017:03:30:00,39.6,12.79,37.0,37.2,37.4,38.0,37.0,100,100,100,0.751,37.4,38.0,37.0,4.823,4.6,354,27,8.9,0.00000,0.00000,44.1,43.9,29,0,100,39.9,13.28,0.03,0.03
15min,AgWx,evansfrm,411,17NOV2017:03:45:00,38.9,12.79,35.6,35.6,36.3,37.1,35.6,100,100,100,0.705,36.3,37.1,35.6,3.814,3.7,340,21,6.4,0.00000,0.00000,44.1,43.7,30,0,100,38.0,13.34,0.06,0.07
15min,AgWx,evansfrm,411,17NOV2017:04:00:00,38.2,12.8,34.8,34.7,35.3,35.7,34.6,100,100,100,0.680,35.3,35.7,34.6,2.126,2.5,313,20,4.8,0.00000,0.00000,43.9,43.7,32,0,100,37.5,13.39,0.05,0.04
15min,AgWx,evansfrm,411,17NOV2017:04:15:00,37.5,12.79,34.4,34.3,34.6,34.8,34.2,100,100,100,0.671,34.6,34.8,34.2,3.398,2.6,257,45,4.6,0.00000,0.00000,43.8,43.7,32,0,100,37.6,13.42,0.03,0.03
15min,AgWx,evansfrm,411,17NOV2017:04:30:00,37.0,12.79,33.0,32.7,33.6,34.3,32.7,100,100,100,0.629,33.6,34.3,32.7,3.573,4.8,178,29,7.5,0.00000,0.00000,43.6,43.7,33,0,100,36.0,13.45,0.03,0.02
15min,AgWx,evansfrm,411,17NOV2017:04:45:00,36.2,12.79,32.8,32.7,32.6,32.7,32.4,100,100,100,0.628,32.6,32.7,32.4,1.732,3.0,85,40,4.9,0.00000,0.00000,43.6,43.7,33,0,100,34.6,13.47,0.02,0.00
15min,AgWx,evansfrm,411,17NOV2017:05:00:00,35.6,12.78,32.8,32.6,32.6,32.7,32.4,100,100,100,0.626,32.6,32.8,32.4,1.447,2.3,262,30,4.2,0.00000,0.00000,43.4,43.3,33,0,100,35.0,13.50,0.03,0.02
15min,AgWx,evansfrm,411,17NOV2017:05:15:00,35.2,12.74,32.8,32.6,32.6,32.7,32.4,100,100,100,0.626,32.6,32.8,32.4,5.108,2.2,165,27,6.0,0.00000,0.00000,43.2,43.7,33,0,100,35.8,13.51,0.02,0.01
15min,AgWx,evansfrm,411,17NOV2017:05:30:00,34.9,12.78,33.1,32.9,32.8,33.0,32.5,100,100,100,0.632,32.8,33.0,32.5,1.995,4.0,197,22,5.6,0.00000,0.00000,43.0,43.3,33,0,100,36.3,13.53,0.01,0.02
15min,AgWx,evansfrm,411,17NOV2017:05:45:00,34.7,12.78,33.0,32.9,32.9,33.1,32.8,100,100,100,0.632,32.9,33.1,32.7,1.25,2.1,203,23,3.4,0.00000,0.00000,42.7,43.3,33,0,100,36.8,13.53,0.00,0.01
15min,AgWx,evansfrm,411,17NOV2017:06:00:00,34.5,12.72,33.2,32.9,32.9,33.1,32.8,100,100,100,0.634,32.9,33.1,32.8,2.696,1.5,275,40,2.9,0.00000,0.00000,42.6,43.3,33,0,100,37.1,13.53,0.00,0.00
15min,AgWx,evansfrm,411,17NOV2017:06:15:00,34.5,12.77,33.3,33.1,33.1,33.2,32.9,100,100,100,0.637,33.1,33.2,32.9,2.411,2.6,133,45,4.3,0.00000,0.00000,42.4,43.3,33,0,100,37.6,13.53,0.00,0.01
15min,AgWx,evansfrm,411,17NOV2017:06:30:00,34.5,12.77,34.5,34.6,33.6,34.6,33.1,100,100,100,0.677,33.6,34.6,33.1,3.42,6.3,101,20,11.8,0.00000,0.00000,42.2,43.3,33,0,100,37.2,13.55,0.01,0.03
15min,AgWx,evansfrm,411,17NOV2017:06:45:00,34.9,12.77,36.4,36.8,36.1,38.7,34.6,100,100,99,0.739,36.0,38.7,34.6,4.801,4.3,148,36,8.4,0.00000,0.00000,42.2,43.2,33,0,100,39.1,13.55,0.00,0.01
15min,AgWx,evansfrm,411,17NOV2017:07:00:00,35.1,12.77,35.8,35.7,35.3,36.7,34.8,100,100,100,0.709,35.3,36.7,34.8,4.779,3.5,237,30,5.2,0.00000,0.00000,42.0,43.0,33,0,100,38.8,13.55,0.00,0.00
15min,AgWx,evansfrm,411,17NOV2017:07:15:00,35.6,12.77,37.7,37.6,37.1,37.9,35.9,100,100,100,0.764,37.1,37.9,35.9,8.66,6.7,155,11,8.8,0.00000,0.00000,41.8,43.0,33,0,100,40.1,13.55,0.00,0.00
15min,AgWx,evansfrm,411,17NOV2017:07:30:00,36.1,12.77,38.5,38.4,38.0,38.4,37.6,99,100,98,0.767,37.6,37.8,37.4,6.862,7.4,163,17,10.7,0.00001,0.00001,41.8,42.8,33,1,100,40.5,13.55,0.00,0.00
15min,AgWx,evansfrm,411,17NOV2017:07:45:00,36.5,12.77,39.5,39.2,38.8,39.5,38.2,95,98,92,0.754,37.5,37.8,37.2,5.174,7.0,167,6.9,9.1,0.00007,0.00011,41.8,42.8,32,2,100,41.4,13.55,0.00,0.00
15min,AgWx,evansfrm,411,17NOV2017:08:00:00,37.0,12.77,39.7,39.6,39.5,39.6,39.3,92,93,91,0.762,37.3,37.6,37.1,4.121,5.3,174,8.3,9.0,0.00007,0.00013,41.7,42.6,32,16,100,42.6,13.54,0.00,0.00
15min,AgWx,evansfrm,411,17NOV2017:08:15:00,37.4,12.77,38.9,38.9,39.1,39.7,38.7,95,97,92,0.782,37.9,38.2,37.4,0,3.6,111,39,6.6,0.00011,0.00014,41.7,42.8,32,17,100,42.5,13.54,0.00,0.00
15min,AgWx,evansfrm,411,17NOV2017:08:30:00,37.6,12.78,38.7,38.7,38.8,39.0,38.7,98,100,97,0.796,38.3,38.9,37.9,1.14,0.4,255,11,2.6,0.00010,0.00011,41.7,42.8,32,20,100,43.5,13.54,0.00,0.00
15min,AgWx,evansfrm,411,17NOV2017:08:45:00,37.9,12.77,39.4,39.2,38.9,39.3,38.5,100,100,98,0.799,38.8,39.0,38.5,2.061,2.4,153,31,4.3,0.00008,0.00008,41.7,42.4,32,15,100,43.4,13.54,0.00,0.00
15min,AgWx,evansfrm,411,17NOV2017:09:00:00,38.0,12.79,38.1,37.9,38.2,39.3,37.8,100,100,99,0.772,38.2,39.1,37.8,1.381,3.3,351,20,5.5,0.00008,0.00009,41.5,42.4,32,19,100,42.5,13.54,0.00,0.00
15min,AgWx,evansfrm,411,17NOV2017:09:15:00,38.2,12.79,37.6,37.4,37.5,38.1,37.3,100,100,100,0.759,37.5,38.1,37.3,0.877,2.6,17,36,4.7,0.00014,0.00015,41.6,42.3,32,32,100,42.4,13.54,0.00,0.00
15min,AgWx,evansfrm,411,17NOV2017:09:30:00,38.3,12.87,38.1,37.9,37.6,38.0,37.3,100,100,100,0.772,37.6,38.0,37.3,6.379,3.1,3.8,36,6.4,0.00034,0.00036,41.5,42.4,32,93,100,44.0,13.54,0.00,0.00
15min,AgWx,evansfrm,411,17NOV2017:09:45:00,38.6,12.85,38.5,38.4,37.9,38.4,37.6,100,100,100,0.787,37.9,38.4,37.6,3.486,4.5,32,31,9.4,0.00036,0.00038,41.6,42.4,31,98,100,44.2,13.54,0.00,0.00
15min,AgWx,evansfrm,411,17NOV2017:10:00:00,38.8,12.84,38.1,37.8,38.0,38.4,37.7,100,100,100,0.770,38.0,38.4,37.7,2.192,3.2,349,18,5.4,0.00029,0.00031,41.5,42.4,31,68,100,44.0,13.54,0.00,0.00
15min,AgWx,evansfrm,411,17NOV2017:10:15:00,39.0,12.79,37.8,37.4,37.8,38.1,37.4,100,100,100,0.757,37.8,38.1,37.4,8.4,5.9,334,18,11.2,0.00023,0.00024,41.7,42.3,31,58,100,43.5,13.54,0.00,0.00
15min,AgWx,evansfrm,411,17NOV2017:10:30:00,38.5,12.78,35.7,35.5,36.3,37.5,35.4,100,100,100,0.702,36.3,37.5,35.4,5.48,7.4,351,19,11.8,0.00010,0.00011,41.6,42.3,31,29,100,38.9,13.56,0.02,0.02
15min,AgWx,evansfrm,411,17NOV2017:10:45:00,37.9,12.77,35.1,35.0,35.2,35.5,34.9,100,100,100,0.689,35.2,35.5,34.9,4.669,5.1,35,24,10.6,0.00013,0.00013,41.7,42.4,31,33,100,38.3,13.58,0.02,0.01
15min,AgWx,evansfrm,411,17NOV2017:11:00:00,37.6,12.77,36.1,36.0,35.5,36.0,34.9,100,100,100,0.716,35.5,36.0,34.9,4.428,4.9,37,24,8.6,0.00010,0.00011,41.7,42.4,31,26,100,39.3,13.58,0.00,0.01
15min,AgWx,evansfrm,411,17NOV2017:11:15:00,37.4,12.77,36.4,36.3,36.1,36.3,35.9,100,100,100,0.725,36.1,36.3,35.9,2.631,4.6,13,13,8.4,0.00010,0.00010,41.7,42.1,31,24,100,39.7,13.58,0.00,0.00
15min,AgWx,evansfrm,411,17NOV2017:11:30:00,37.3,12.76,36.9,36.8,36.6,36.9,36.3,100,100,100,0.741,36.6,36.9,36.3,4.077,4.1,334,17,7.2,0.00009,0.00010,41.8,41.9,31,22,100,39.7,13.58,0.00,0.00
15min,AgWx,evansfrm,411,17NOV2017:11:45:00,37.2,12.77,36.8,36.8,36.8,37.0,36.5,99,100,96,0.722,36.6,37.0,35.8,2.85,4.6,352,16,9.2,0.00013,0.00014,41.8,42.4,31,31,100,39.5,13.59,0.01,0.00
15min,AgWx,evansfrm,411,17NOV2017:12:00:00,37.0,12.79,36.3,36.2,36.5,36.7,36.2,98,100,96,0.689,36.1,36.7,35.0,3.113,4.3,6.0,11,6.9,0.00019,0.00021,41.7,42.4,31,44,100,39.3,13.59,0.01,0.01
15min,AgWx,evansfrm,411,17NOV2017:12:15:00,36.9,12.79,36.2,35.9,36.1,36.3,35.9,98,99,95,0.706,35.4,35.9,34.9,0.877,2.9,2.5,17,5.4,0.00028,0.00031,41.7,42.1,31,65,100,39.8,13.60,0.00,0.01
15min,AgWx,evansfrm,411,17NOV2017:12:30:00,36.9,12.78,36.2,36.0,36.0,36.2,35.8,98,99,96,0.701,35.6,35.8,34.9,0,0.3,304,19,1.8,0.00021,0.00023,41.8,42.1,31,45,100,41.1,13.60,0.00,0.00
15min,AgWx,evansfrm,411,17NOV2017:12:45:00,36.9,12.79,36.3,36.1,36.1,36.2,35.9,96,98,95,0.705,34.9,35.7,34.5,2.433,0.9,243,8.3,2.6,0.00026,0.00028,41.7,42.1,31,55,100,42.0,13.60,0.00,0.00
15min,AgWx,evansfrm,411,17NOV2017:13:00:00,37.0,12.79,36.4,36.0,36.0,36.3,35.9,97,99,96,0.694,35.3,35.9,34.7,1.929,0.9,244,16,2.7,0.00030,0.00032,41.7,41.9,31,63,100,41.8,13.60,0.00,0.00
15min,AgWx,evansfrm,411,17NOV2017:13:15:00,37.1,12.75,35.9,35.7,35.9,36.2,35.7,97,99,96,0.703,35.2,35.6,34.7,3.135,2.8,114,35,6.3,0.00025,0.00028,41.7,42.1,31,56,100,41.3,13.60,0.00,0.01
15min,AgWx,evansfrm,411,17NOV2017:13:30:00,36.9,12.77,35.7,35.7,35.5,35.7,35.3,97,100,92,0.652,34.8,35.6,33.5,3.902,3.0,109,15,5.7,0.00018,0.00020,41.7,41.9,31,40,100,39.7,13.61,0.00,0.00
15min,AgWx,evansfrm,411,17NOV2017:13:45:00,36.8,12.83,35.9,35.7,35.6,35.9,35.3,96,98,92,0.675,34.5,35.2,33.5,2.302,2.3,98,58,4.4,0.00040,0.00043,41.7,41.7,31,89,100,40.9,13.61,0.00,0.00
15min,AgWx,evansfrm,411,17NOV2017:14:00:00,36.9,12.89,37.4,37.4,36.8,37.4,35.8,86,95,80,0.623,32.8,34.7,31.5,1.841,3.5,298,22,6.8,0.00058,0.00068,41.7,42.1,31,129,100,41.7,13.61,0.00,0.00
15min,AgWx,evansfrm,411,17NOV2017:14:15:00,37.0,12.87,37.6,37.6,37.5,37.6,37.3,76,83,72,0.554,30.7,32.9,29.2,3.858,3.6,259,36,8.0,0.00058,0.00072,41.8,41.9,31,107,100,42.2,13.61,0.00,0.00
15min,AgWx,evansfrm,411,17NOV2017:14:30:00,37.1,12.9,37.6,37.4,37.4,37.6,37.3,72,75,69,0.550,29.3,30.1,28.3,3.508,5.8,272,22,10.9,0.00067,0.00089,41.6,42.1,31,117,100,41.3,13.61,0.00,0.00
15min,AgWx,evansfrm,411,17NOV2017:14:45:00,37.5,12.96,38.3,38.2,37.8,38.2,37.3,72,75,66,0.547,29.4,30.6,28.0,3.639,4.5,319,27,12.3,0.00070,0.00090,41.7,41.9,31,146,100,43.0,13.61,0.00,0.00
15min,AgWx,evansfrm,411,17NOV2017:15:00:00,38.1,12.94,38.3,38.1,38.2,38.3,38.1,66,70,63,0.502,27.9,29.5,26.8,8.09,5.8,308,25,12.0,0.00071,0.00098,41.8,42.1,31,124,100,42.8,13.61,0.00,0.00
15min,AgWx,evansfrm,411,17NOV2017:15:15:00,38.5,12.95,38.3,38.2,38.2,38.2,38.1,67,71,64,0.523,28.2,29.5,27.0,4.823,5.3,308,29,10.3,0.00067,0.00092,41.8,41.9,31,129,100,43.2,13.61,0.00,0.00
15min,AgWx,evansfrm,411,17NOV2017:15:30:00,38.9,13.03,38.4,38.2,38.2,38.3,38.0,65,68,59,0.465,27.3,28.6,25.3,7.519,5.3,333,26,11.3,0.00066,0.00092,41.9,41.9,31,142,100,44.0,13.60,0.00,0.00
15min,AgWx,evansfrm,411,17NOV2017:15:45:00,39.0,13.1,38.3,38.0,38.1,38.2,37.9,60,63,55,0.446,25.4,26.7,23.5,3.771,5.3,324,29,11.1,0.00063,0.00092,41.9,41.9,31,141,100,43.2,13.60,0.00,0.00
15min,AgWx,evansfrm,411,17NOV2017:16:00:00,38.9,13.51,39.0,39.0,38.1,39.0,37.7,58,60,54,0.458,24.6,25.8,23.2,2.959,5.6,329,30,10.4,0.00058,0.00089,41.9,41.9,31,154,94,42.2,13.60,0.00,0.00
15min,AgWx,evansfrm,411,17NOV2017:16:15:00,39.5,13.54,38.9,38.4,38.8,39.1,38.4,55,59,53,0.445,24.2,25.7,23.2,3.749,5.2,331,26,11.6,0.00062,0.00094,42.0,42.1,31,162,6,43.2,13.60,0.00,0.00
15min,AgWx,evansfrm,411,17NOV2017:16:30:00,39.6,13.18,37.0,36.5,37.4,38.4,36.5,59,61,56,0.435,24.3,25.1,23.7,6.862,4.5,325,23,10.9,0.00023,0.00047,42.1,42.1,31,52,0,40.7,13.60,0.00,0.00
15min,AgWx,evansfrm,411,17NOV2017:16:45:00,39.0,13.04,36.3,36.0,36.5,36.8,36.0,59,62,57,0.431,23.6,24.4,22.9,3.288,5.8,298,20,10.8,0.00027,0.00055,42.0,41.9,31,21,0,38.5,13.60,0.00,0.00
15min,AgWx,evansfrm,411,17NOV2017:17:00:00,38.1,12.96,36.2,36.0,35.9,36.3,35.7,59,61,57,0.410,23.1,23.9,22.2,9.49,3.8,343,26,9.5,0.00003,0.00022,42.0,42.1,31,12,0,37.6,13.60,0.00,0.00
15min,AgWx,evansfrm,411,17NOV2017:17:15:00,37.1,12.89,35.8,35.9,35.9,36.4,35.6,57,59,55,0.408,22.3,22.7,21.8,4.209,4.1,333,22,9.5,0.00017,0.00023,41.9,41.9,31,4,0,37.3,13.60,0.00,0.00
15min,AgWx,evansfrm,411,17NOV2017:17:30:00,36.2,12.84,35.1,34.9,35.4,35.9,34.8,60,63,57,0.420,22.7,23.5,22.1,6.423,3.5,320,19,7.8,0.00013,0.00018,41.9,41.9,31,1,0,36.7,13.60,0.00,0.00
15min,AgWx,evansfrm,411,17NOV2017:17:45:00,35.6,12.81,35.4,35.3,35.4,35.8,35.0,60,62,57,0.417,22.8,23.4,21.9,2.609,4.5,342,18,7.3,0.00016,0.00021,41.8,41.5,31,0,0,37.5,13.60,0.00,0.00
15min,AgWx,evansfrm,411,17NOV2017:18:00:00,35.3,12.78,35.6,35.6,35.4,35.6,35.1,59,61,56,0.393,22.3,23.1,21.4,10.11,4.2,331,22,10.1,0.00015,0.00020,41.6,41.7,31,0,0,37.6,13.60,0.00,0.00
15min,AgWx,evansfrm,411,17NOV2017:18:15:00,35.1,12.76,35.1,34.9,35.4,35.8,34.9,57,58,55,0.401,21.6,22.0,21.3,3.047,5.1,315,23,9.2,0.00019,0.00024,41.6,42.1,31,0,0,37.4,13.60,0.00,0.00
15min,AgWx,evansfrm,411,17NOV2017:18:30:00,35.0,12.75,35.4,35.2,35.3,35.7,34.9,57,59,55,0.405,21.8,22.4,21.1,3.88,5.1,316,21,12.9,0.00018,0.00024,41.4,42.3,31,0,0,38.0,13.60,0.00,0.00
15min,AgWx,evansfrm,411,17NOV2017:18:45:00,35.0,12.74,34.9,34.6,34.9,35.2,34.6,60,63,57,0.422,22.5,23.4,21.6,3.88,3.6,312,21,8.0,0.00013,0.00018,41.2,41.9,31,0,0,38.2,13.60,0.00,0.00
15min,AgWx,evansfrm,411,17NOV2017:19:00:00,34.8,12.74,35.2,35.1,34.8,35.2,34.5,60,63,56,0.394,22.2,23.4,21.1,6.248,5.7,308,22,14.3,0.00018,0.00023,41.2,42.1,30,0,0,37.2,13.60,0.00,0.00
15min,AgWx,evansfrm,411,17NOV2017:19:15:00,34.4,12.74,34.0,33.8,34.5,35.1,33.8,58,61,56,0.395,21.2,21.8,20.6,5.48,5.2,315,20,12.3,0.00018,0.00023,41.0,41.5,30,0,0,36.0,13.60,0.00,0.00
15min,AgWx,evansfrm,411,17NOV2017:19:30:00,33.8,12.73,33.5,33.4,33.6,34.0,33.4,61,63,59,0.404,21.7,22.1,21.1,0.658,2.5,326,16,7.3,0.00009,0.00013,40.8,41.9,30,0,0,35.2,13.60,0.00,0.00
15min,AgWx,evansfrm,411,17NOV2017:19:45:00,33.2,12.73,33.9,34.0,33.4,34.0,33.1,62,64,58,0.385,21.7,22.3,20.8,0.022,1.2,354,13,4.5,0.00003,0.00005,40.7,41.9,30,0,0,35.6,13.60,0.00,0.00
15min,AgWx,evansfrm,411,17NOV2017:20:00:00,33.0,12.74,33.7,33.6,33.7,34.1,33.3,61,62,59,0.397,21.5,22.2,21.0,2.85,2.1,317,26,8.6,0.00007,0.00010,40.6,41.5,30,0,0,36.7,13.60,0.00,0.00
15min,AgWx,evansfrm,411,17NOV2017:20:15:00,33.0,12.73,33.7,33.8,33.7,34.0,33.4,60,62,59,0.394,21.5,21.8,21.1,2.17,3.2,319,23,7.0,0.00011,0.00016,40.5,41.7,30,0,0,36.6,13.60,0.00,0.00
15min,AgWx,evansfrm,411,17NOV2017:20:30:00,32.8,12.69,33.1,33.1,33.4,33.8,33.1,62,67,60,0.427,21.9,23.4,21.1,0,1.2,336,16,5.9,0.00003,0.00005,40.4,41.7,30,0,0,36.2,13.60,0.00,0.00
15min,AgWx,evansfrm,411,17NOV2017:20:45:00,32.3,12.73,32.4,32.2,32.5,33.1,32.2,69,73,66,0.440,23.3,24.8,22.6,0,0.6,212,18,2.1,-0.00002,-0.00002,40.3,41.7,30,0,0,35.7,13.60,0.00,0.00
15min,AgWx,evansfrm,411,17NOV2017:21:00:00,31.8,12.72,32.8,32.8,32.4,33.7,31.6,68,74,60,0.401,23.0,24.5,21.0,1.6,0.7,51,12,2.8,-0.00001,-0.00001,40.2,41.9,30,0,0,34.4,13.60,0.00,0.00
15min,AgWx,evansfrm,411,17NOV2017:21:15:00,31.2,12.68,31.8,32.0,32.6,33.0,32.0,65,67,63,0.408,22.0,22.3,21.6,0,0.2,12,8.6,2.5,-0.00004,-0.00006,40.1,41.5,30,0,0,34.1,13.60,0.00,0.00
15min,AgWx,evansfrm,411,17NOV2017:21:30:00,30.6,12.72,31.1,30.9,31.7,32.7,30.8,70,75,65,0.426,23.0,24.2,21.9,1.513,0.7,122,33,2.9,-0.00001,-0.00002,40.0,41.5,30,0,0,33.5,13.60,0.00,0.00
15min,AgWx,evansfrm,411,17NOV2017:21:45:00,30.0,12.71,30.8,31.1,31.0,31.3,30.4,72,77,68,0.405,22.9,24.3,22.1,0.285,0.3,94,46,1.7,-0.00003,-0.00005,40.0,41.5,30,0,0,32.8,13.60,0.00,0.00
15min,AgWx,evansfrm,411,17NOV2017:22:00:00,29.5,12.72,31.0,30.8,31.4,32.0,30.7,68,71,65,0.415,22.0,22.6,21.4,1.6,1.8,330,37,3.9,0.00004,0.00006,39.8,41.2,30,0,0,32.9,13.60,0.00,0.00
15min,AgWx,evansfrm,411,17NOV2017:22:15:00,29.0,12.71,29.6,29.6,30.3,30.9,29.6,74,76,72,0.406,22.9,23.5,22.1,2.631,1.0,130,48,2.6,-0.00001,-0.00000,39.7,41.5,30,0,0,31.5,13.60,0.00,0.00
15min,AgWx,evansfrm,411,17NOV2017:22:30:00,28.6,12.71,29.2,29.0,29.9,30.8,28.8,73,79,68,0.427,22.2,23.4,21.5,0,2.0,108,5.8,3.6,0.00003,0.00005,39.7,41.2,30,0,0,31.7,13.60,0.00,0.00
15min,AgWx,evansfrm,411,17NOV2017:22:45:00,27.9,12.71,28.6,28.8,29.0,29.9,28.5,79,83,75,0.415,23.3,24.3,22.0,0,0.1,155,2.5,1.5,-0.00004,-0.00007,39.6,41.2,30,0,0,30.6,13.60,0.00,0.00
15min,AgWx,evansfrm,411,17NOV2017:23:00:00,27.4,12.7,29.9,30.2,29.8,30.5,28.6,73,78,69,0.398,22.2,23.1,21.3,1.206,0.1,270,28,2.3,-0.00004,-0.00007,39.6,40.8,30,0,0,30.9,13.60,0.00,0.00
15min,AgWx,evansfrm,411,17NOV2017:23:15:00,27.0,12.7,29.1,28.9,29.9,30.6,28.9,72,76,68,0.410,21.8,22.5,21.2,0,0.1,254,3.8,1.8,-0.00004,-0.00007,39.4,41.0,30,0,0,31.0,13.60,0.00,0.00
15min,AgWx,evansfrm,411,17NOV2017:23:30:00,26.7,12.7,27.9,28.2,27.7,28.8,27.1,80,82,77,0.409,22.2,22.5,21.8,3.354,1.9,125,8.0,4.0,0.00001,0.00002,39.4,41.2,30,0,0,30.5,13.60,0.00,0.00
15min,AgWx,evansfrm,411,17NOV2017:23:45:00,26.6,12.7,28.4,28.1,28.3,28.9,27.9,81,83,78,0.431,23.2,23.8,22.2,4.099,3.3,142,17,4.5,0.00003,0.00005,39.3,40.6,29,0,0,30.8,13.60,0.00,0.00
15min,AgWx,drainfrm,410,17NOV2017:00:00:00,43.2,12.43,41.4,41.9,42.0,42.1,41.8,93,94,92,0.832,40.1,40.4,39.8,8.33,9.0,7.8,15,11.9,0.00006,0.00007,44.1,43.5,15,0,100,43.1,12.31,0.04,0.05
15min,AgWx,drainfrm,410,17NOV2017:00:15:00,42.8,12.44,40.9,41.3,41.6,42.0,41.3,92,93,92,0.816,39.5,39.9,39.2,7.717,9.5,16,7.7,12.0,0.00006,0.00008,44.1,43.5,15,0,100,42.6,12.36,0.05,0.05
15min,AgWx,drainfrm,410,17NOV2017:00:30:00,42.4,12.43,40.6,40.7,41.1,41.4,40.7,93,94,92,0.813,39.3,39.5,39.1,8.09,8.4,38,12,11.0,0.00005,0.00006,44.0,43.7,15,0,100,42.3,12.40,0.04,0.04
15min,AgWx,drainfrm,410,17NOV2017:00:45:00,42.0,12.43,40.3,40.7,40.7,40.8,40.6,94,95,94,0.811,39.2,39.3,39.0,4.297,6.1,77,15,10.6,0.00004,0.00005,44.0,43.7,15,0,100,42.1,12.44,0.04,0.05
15min,AgWx,drainfrm,410,17NOV2017:01:00:00,41.7,12.43,40.3,40.6,40.7,40.8,40.5,95,95,94,0.816,39.2,39.5,39.0,5.897,3.3,345,47,6.4,0.00003,0.00004,44.0,43.7,15,0,100,42.6,12.47,0.03,0.02
15min,AgWx,drainfrm,410,17NOV2017:01:15:00,41.5,12.43,40.1,40.6,40.5,40.7,40.4,95,95,94,0.808,39.1,39.5,38.9,6.555,7.2,330,7.8,9.6,0.00004,0.00005,44.0,43.9,15,0,100,42.1,12.49,0.02,0.03
15min,AgWx,drainfrm,410,17NOV2017:01:30:00,41.3,12.42,39.9,40.4,40.4,40.6,40.3,95,95,94,0.811,39.2,39.3,39.0,4.998,5.2,348,10,7.0,0.00003,0.00004,44.0,43.7,15,0,100,42.3,12.50,0.01,0.01
15min,AgWx,drainfrm,410,17NOV2017:01:45:00,41.1,12.42,40.1,40.5,40.5,40.6,40.4,95,95,95,0.814,39.2,39.3,39.1,4.056,4.7,353,10,6.3,0.00003,0.00004,43.9,43.5,15,0,100,42.4,12.51,0.02,0.01
15min,AgWx,drainfrm,410,17NOV2017:02:00:00,41.0,12.42,40.0,40.4,40.5,40.6,40.3,95,96,94,0.807,39.1,39.4,38.8,3.771,5.0,14,16,8.2,0.00003,0.00004,43.8,43.7,15,0,100,42.2,12.54,0.03,0.03
15min,AgWx,drainfrm,410,17NOV2017:02:15:00,40.8,12.42,39.9,40.3,40.3,40.4,40.2,95,95,94,0.802,38.9,39.1,38.8,4.845,4.0,11,12,6.1,0.00003,0.00004,43.9,43.9,15,0,100,42.2,12.56,0.02,0.03
15min,AgWx,drainfrm,410,17NOV2017:02:30:00,40.7,12.42,39.7,40.3,40.2,40.3,39.9,93,95,90,0.773,38.3,38.9,37.3,7.541,5.7,18,17,10.6,0.00004,0.00006,43.8,43.7,16,0,100,41.7,12.60,0.04,0.04
15min,AgWx,drainfrm,410,17NOV2017:02:45:00,40.4,12.42,39.3,39.8,39.9,40.3,39.6,93,94,92,0.773,38.0,38.2,37.7,5.919,4.5,23,15,6.9,0.00004,0.00005,43.8,43.7,16,0,100,41.3,12.64,0.04,0.04
15min,AgWx,drainfrm,410,17NOV2017:03:00:00,40.2,12.42,38.8,39.1,39.5,39.9,39.1,93,94,92,0.756,37.7,38.2,37.2,4.165,6.6,339,17,11.4,0.00005,0.00006,43.7,43.5,17,0,100,41.0,12.68,0.04,0.05
15min,AgWx,drainfrm,410,17NOV2017:03:15:00,39.7,12.41,37.2,37.7,38.2,39.3,37.6,92,94,91,0.715,36.2,37.6,35.8,5.875,7.6,355,11,11.4,0.00005,0.00006,43.7,43.9,17,0,100,39.3,12.74,0.06,0.06
15min,AgWx,drainfrm,410,17NOV2017:03:30:00,39.0,12.41,36.2,36.6,37.0,37.7,36.5,93,94,93,0.690,35.2,36.0,34.7,3.551,4.9,351,14,9.5,0.00004,0.00005,43.7,43.7,18,0,100,38.1,12.79,0.05,0.05
15min,AgWx,drainfrm,410,17NOV2017:03:45:00,38.2,12.41,35.2,35.5,36.0,36.7,35.4,94,95,94,0.665,34.6,35.1,34.1,1.008,3.1,351,15,7.4,0.00002,0.00003,43.5,43.9,19,0,100,37.1,12.83,0.04,0.04
15min,AgWx,drainfrm,410,17NOV2017:04:00:00,37.5,12.41,34.6,34.9,35.3,35.5,34.8,95,96,95,0.659,34.1,34.2,33.8,3.31,2.8,337,13,3.9,0.00002,0.00003,43.5,43.7,20,0,100,37.1,12.86,0.03,0.03
15min,AgWx,drainfrm,410,17NOV2017:04:15:00,37.0,12.41,34.1,34.4,34.6,34.9,34.4,97,97,96,0.654,33.8,34.0,33.7,4.801,5.6,285,18,6.7,0.00002,0.00002,43.5,43.5,21,0,100,36.5,12.89,0.03,0.04
15min,AgWx,drainfrm,410,17NOV2017:04:30:00,36.5,12.41,34.1,34.4,34.4,34.6,34.2,98,98,97,0.659,33.8,34.1,33.6,5.765,5.2,212,30,6.8,0.00001,0.00002,43.4,43.7,23,0,100,36.1,12.94,0.04,0.05
15min,AgWx,drainfrm,410,17NOV2017:04:45:00,35.9,12.4,33.0,33.4,33.8,34.4,33.4,98,98,98,0.633,33.3,33.9,32.9,3.398,4.3,167,25,8.9,0.00001,0.00001,43.3,43.5,24,0,100,35.0,12.98,0.04,0.03
15min,AgWx,drainfrm,410,17NOV2017:05:00:00,35.4,12.4,33.0,33.4,33.3,33.4,33.1,98,99,98,0.638,32.9,33.1,32.7,2.938,3.7,145,11,5.2,0.00001,0.00001,43.2,43.5,25,0,100,34.7,13.02,0.05,0.04
15min,AgWx,drainfrm,410,17NOV2017:05:15:00,35.0,12.4,33.2,33.5,33.4,33.6,33.2,99,99,99,0.643,33.1,33.4,32.9,6.642,4.4,166,19,7.8,0.00001,0.00001,43.1,43.7,26,0,100,35.6,13.04,0.01,0.02
15min,AgWx,drainfrm,410,17NOV2017:05:30:00,34.7,12.4,33.4,33.8,33.7,33.9,33.4,99,99,99,0.650,33.4,33.7,33.1,9.67,7.9,200,9.2,10.4,0.00001,0.00001,43.0,43.3,27,0,100,35.7,13.04,0.00,0.00
15min,AgWx,drainfrm,410,17NOV2017:05:45:00,34.7,12.39,33.7,34.0,33.8,34.0,33.5,99,99,99,0.658,33.6,33.8,33.3,7.563,7.3,206,11,11.6,0.00001,0.00001,42.9,43.7,27,0,100,36.0,13.04,0.00,0.01
15min,AgWx,drainfrm,410,17NOV2017:06:00:00,34.7,12.39,34.1,34.5,34.3,34.5,33.9,99,99,99,0.668,34.1,34.3,33.7,5.765,6.0,210,13,8.6,0.00001,0.00001,42.7,43.3,28,0,100,36.8,13.04,0.00,0.00
15min,AgWx,drainfrm,410,17NOV2017:06:15:00,34.9,12.39,34.3,34.7,34.8,35.3,34.3,99,99,99,0.672,34.5,35.1,34.1,6.248,6.7,177,35,10.1,0.00001,0.00001,42.6,43.5,28,0,100,37.3,13.04,0.00,0.00
15min,AgWx,drainfrm,410,17NOV2017:06:30:00,35.1,12.39,35.0,35.4,35.0,35.4,34.5,98,99,98,0.684,34.6,34.9,34.2,6.905,8.2,140,13,11.4,0.00001,0.00001,42.5,43.5,28,0,100,36.9,13.04,0.00,0.00
15min,AgWx,drainfrm,410,17NOV2017:06:45:00,35.2,12.39,35.0,35.4,35.4,35.6,35.3,97,98,97,0.681,34.7,34.9,34.6,3.288,4.2,139,22,8.8,0.00001,0.00002,42.6,43.3,28,0,100,37.5,13.04,0.00,0.00
15min,AgWx,drainfrm,410,17NOV2017:07:00:00,35.2,12.37,34.9,35.3,35.4,35.5,35.2,97,97,97,0.676,34.6,34.8,34.4,5.042,2.4,273,47,5.0,0.00001,0.00002,42.5,43.2,28,0,100,38.2,13.04,0.00,0.00
15min,AgWx,drainfrm,410,17NOV2017:07:15:00,35.3,12.39,35.6,36.1,35.7,36.2,35.2,97,97,97,0.697,35.0,35.4,34.4,4.691,5.2,219,25,7.5,0.00002,0.00002,42.5,43.3,29,0,100,37.9,13.04,0.00,0.00
15min,AgWx,drainfrm,410,17NOV2017:07:30:00,35.5,12.39,35.5,35.9,36.2,36.5,35.8,96,97,96,0.687,35.3,35.6,34.9,1.688,3.6,228,19,5.3,0.00002,0.00002,42.3,43.2,29,1,100,38.3,13.03,0.00,0.00